Regional Weather Roundup
Issued by NWS Burlington, VT

Home | Current Version | Previous Version | Text Only | Print | Product List | Glossary On
Versions: 1 2 3 4 5 6 7 8 9 10 11 12 13 14 15 16 17 18 19 20 21 22 23 24 25 26 27 28 29 30 31 32 33 34 35 36 37 38 39 40 41 42 43 44 45 46 47 48 49 50
000
ASUS41 KBTV 270830
RWRBTV
VERMONT REGIONAL WEATHER ROUNDUP
NATIONAL WEATHER SERVICE BURLINGTON VT
400 AM EDT FRI MAY 27 2016

NOTE: "FAIR" INDICATES FEW OR NO CLOUDS BELOW 12,000 FEET WITH NO
SIGNIFICANT WEATHER AND/OR OBSTRUCTIONS TO VISIBILITY.

* THESE REPORTS ARE NOT UNDER NWS QUALITY CONTROL AND/OR DO NOT
  REPORT WEATHER SUCH AS PRECIPITATION AND FOG.

VTZ001>019-270900-
_____VERMONT_____


CITY           SKY/WX    TMP DP  RH WIND       PRES   REMARKS
BURLINGTON       N/A    N/A N/A N/A MISG      29.99F
MONTPELIER     CLOUDY    64  57  78 CALM      30.11R
MORRISVILLE    LGT RAIN  61  59  93 SW5       30.07R FOG
ST. JOHNSBURY*   N/A     61  58  90 MISG      30.05F
LYNDONVILLE*   LGT RAIN  62  56  82 CALM      30.10R
RUTLAND*       CLOUDY    69  58  67 SE8       30.05S
SPRINGFIELD    MOCLDY    63  60  90 CALM      30.08R
HIGHGATE*      MOCLDY    64  55  70 S6        29.97S
NEWPORT*       MOCLDY    64  58  82 S6        30.05R
BENNINGTON     LGT RAIN  67  56  67 SE6       30.06R
SUTTON*          N/A     59 N/A N/A MISG        N/A
GALLUP MILLS*    N/A     55 N/A N/A MISG        N/A
UNION VILLAGE*   N/A     61 N/A N/A MISG        N/A
MT. MANSFIELD*   N/A     59 N/A N/A W21         N/A

_____LAKE CHAMPLAIN_____


CITY           SKY/WX    TMP DP  RH WIND       PRES   REMARKS
BURTON ISLAND*   N/A     64  55  72 S6          N/A
COLCHESTER RF*   N/A     63  57  82 S6          N/A
DIAMOND ISL*     N/A     66  55  68 SW5         N/A

$$

NYZ007-026>031-035-052-083-087-270900-
_____NORTHERN NEW YORK_____


CITY           SKY/WX    TMP DP  RH WIND       PRES   REMARKS
PLATTSBURGH    CLOUDY    61  56  83 CALM      29.98S
SARANAC LAKE   CLOUDY    53  50  89 CALM      30.02F
MASSENA        PTCLDY    57  51  80 CALM      29.95F
OGDENSBURG*    CLEAR     57  57 100 CALM      29.93F
POTSDAM*       CLEAR     64  61  88 SW5       29.95F
STARK FALLS*     N/A     32 N/A N/A SE8         N/A  WCI  25
WATERTOWN      PTCLDY    57  55  93 CALM      29.95F FOG
ALBANY         CLOUDY    73  50  44 S6        30.03R
GLENS FALLS    CLOUDY    66  60  81 CALM      30.02S

$$
NHZ002-005-011-270900-
_____NEW HAMPSHIRE_____


CITY           SKY/WX    TMP DP  RH WIND       PRES   REMARKS
LEBANON        CLOUDY    66  55  67 CALM      30.07R
MT WASHINGTON  FOG       45  45 100 S25G31      N/A  VSB 0
PLYMOUTH       CLOUDY    62  54  76 CALM      30.12S
WHITEFIELD     CLOUDY    68  52  56 S15G21    30.09R

$$

_____REGIONAL QUEBEC LOCATIONS_____


CITY           SKY/WX    TMP DP  RH WIND       PRES   REMARKS
MONTREAL       MOCLDY    61  50  67 N8        29.96F
QUEBEC CITY    LGT RAIN  54  50  87 E8        30.06
SHERBROOKE     CLOUDY    59  55  88 SE6       30.02F

_____REGIONAL ONTARIO LOCATIONS_____


CITY           SKY/WX    TMP DP  RH WIND       PRES   REMARKS
OTTAWA         MOCLDY    59  45  58 N5        29.94F

______KEY______
VSB  - VISIBILITY IN MILES
WCI  - WIND CHILL INDEX
HX   - HEAT INDEX
$$
NNNN




USA.gov is the U.S. government's official web portal to all federal, state and local government web resources and services.